Regional Weather Roundup
Issued by NWS State College, PA

Home | Current Version | Previous Version | Text Only | Print | Product List | Glossary On
Versions: 1 2 3 4 5 6 7 8 9 10 11 12 13 14 15 16 17 18 19 20 21 22 23 24 25 26 27 28 29 30 31 32 33 34 35 36 37 38 39 40 41 42 43 44 45 46 47 48 49 50
000
ASUS41 KCTP 251810
RWRCTP

REGIONAL WEATHER ROUNDUP
NATIONAL WEATHER SERVICE STATE COLLEGE PA
200 PM EDT THU AUG 25 2016

Note: "fair" indicates few or no clouds below 12,000 feet with no
significant weather and/or obstructions to visibility.

* = STATION THAT DOES NOT REPORT PRECIPITATION /E.G. RAIN...SNOW...ETC/
    THUNDER OR FOG.

PAZ002>004-007>009-013>016-020>023-029>032-251900-
WESTERN PENNSYLVANIA

CITY           SKY/WX    TMP DP  RH WIND       PRES   REMARKS
ERIE           SUNNY     83  72  69 W6        30.00F
MEADVILLE      MOSUNNY   81  70  69 SW8       30.06F
FRANKLIN*      MOSUNNY   82  70  65 W6        30.08F
NEW CASTLE     MOCLDY    84  71  65 W7        30.06F
BEAVER COUNTY  PTSUNNY   86  70  58 SW7       30.07F
BUTLER*        NOT AVBL
PITTSBURGH INT PTSUNNY   83  68  60 SW7       30.07F
PITTSBURGH     PTSUNNY   83  68  60 SW8       30.07F
INDIANA*       PTSUNNY   82  72  69 W12       30.11S
LATROBE        PTSUNNY   82  72  69 SW14      30.10S
WASHINGTON CO* PTSUNNY   84  70  61 SW8       30.09F
$$

PAZ004>006-010>012-017>019-024>028-033>037-041-042-045-046-049>053-251900-
CENTRAL PENNSYLVANIA

CITY           SKY/WX    TMP DP  RH WIND       PRES   REMARKS
BRADFORD       PTSUNNY   79  70  74 VRB7      30.08S
DUBOIS         PTSUNNY   82  68  62 W10G18    30.08S
CLEARFIELD     PTSUNNY   85  69  58 W10       30.07S
JOHNSTOWN      PTSUNNY   79  68  69 SW8       30.14R
ALTOONA        MOSUNNY   85  68  56 W6        30.09F
STATE COLLEGE  PTSUNNY   82  72  69 SW8       30.06F
WILLIAMSPORT   CLOUDY    80  70  71 CALM      30.02S
SELINSGROVE    CLOUDY    80  72  76 S7        30.03F
FT INDIANTOWN  MOSUNNY   80  69  69 SW7       30.05F
CAPITAL CITY   MOSUNNY   87  70  56 SW5       30.04F
HARRISBURG     CLOUDY    86  72  62 SE3       30.03F
YORK           PTSUNNY   85  71  63 S5        30.05F
$$

PAZ038>040-043-044-047-048-054-055-060>062-067>071-251900-
EASTERN PENNSYLVANIA

CITY           SKY/WX    TMP DP  RH WIND       PRES   REMARKS
SCRANTON       PTSUNNY   79  69  71 SW8       30.04R
MOUNT POCONO   CLOUDY    70  66  87 SW13      30.10F
ALLENTOWN      CLOUDY    82  70  66 CALM      30.04F
QUAKERTOWN*    CLOUDY    82  70  65 CALM      30.06F
READING        CLOUDY    82  70  66 SW7       30.04F
LANCASTER      PTSUNNY   83  73  72 S6        30.05F
COATESVILLE    MOCLDY    81  70  69 VRB7      30.08F
POTTSTOWN      CLOUDY    82  70  66 SW7       30.07F
BLUE BELL      CLOUDY    82  70  65 SW10      30.05F
DOYLESTOWN     PTSUNNY   85  70  60 SW10      30.05F
WILLOW GROVE   NOT AVBL
NORTH PHILA    PTSUNNY   87  70  56 VRB7      30.06F
PHILADELPHIA   PTSUNNY   87  69  54 S13       30.05F
$$




USA.gov is the U.S. government's official web portal to all federal, state and local government web resources and services.